Hourly Weather Russkie Shibashi

Today, 22 April, Thursday

Time Temperature Precipitation Wind Pressure Humidity
00:00 +2°C° 0.2 mm 6 mps 756 mmHg 91%
01:00 +2°C° 0.2 mm 6 mps 756 mmHg 92%
02:00 +2°C° 0.2 mm 6 mps 757 mmHg 93%
03:00 +2°C° 0.2 mm 5 mps 757 mmHg 94%
04:00 +2°C° 0 mm 5 mps 757 mmHg 94%
05:00 +2°C° 0 mm 5 mps 757 mmHg 95%
06:00 +3°C° 0 mm 4 mps 758 mmHg 95%
07:00 +4°C° 0 mm 4 mps 758 mmHg 93%
08:00 +4°C° 0 mm 4 mps 758 mmHg 92%
09:00 +5°C° 0 mm 5 mps 758 mmHg 90%
10:00 +5°C° 0 mm 5 mps 758 mmHg 86%
11:00 +6°C° 0 mm 5 mps 758 mmHg 81%
12:00 +7°C° 0 mm 5 mps 758 mmHg 77%
13:00 +8°C° 0 mm 5 mps 758 mmHg 72%
14:00 +9°C° 0 mm 5 mps 758 mmHg 67%
15:00 +10°C° 0 mm 5 mps 758 mmHg 63%
16:00 +10°C° 0 mm 5 mps 758 mmHg 65%
17:00 +9°C° 0 mm 5 mps 758 mmHg 68%
18:00 +10°C° 0 mm 4 mps 758 mmHg 70%
19:00 +8°C° 0 mm 5 mps 758 mmHg 73%
20:00 +6°C° 0 mm 5 mps 758 mmHg 76%
21:00 +5°C° 0 mm 5 mps 759 mmHg 79%
22:00 +5°C° 0 mm 5 mps 759 mmHg 83%
23:00 +4°C° 0 mm 4 mps 759 mmHg 86%

Tomorrow, 23 April, Friday

Time Temperature Precipitation Wind Pressure Humidity
00:00 +3°C° 0 mm 4 mps 758 mmHg 90%
01:00 +3°C° 0 mm 4 mps 759 mmHg 91%
02:00 +3°C° 0 mm 3 mps 759 mmHg 93%
03:00 +2°C° 0 mm 3 mps 759 mmHg 95%
04:00 +3°C° 0 mm 3 mps 759 mmHg 94%
05:00 +3°C° 0 mm 3 mps 759 mmHg 93%
06:00 +3°C° 0 mm 3 mps 759 mmHg 91%
07:00 +5°C° 0 mm 3 mps 759 mmHg 84%
08:00 +8°C° 0 mm 3 mps 759 mmHg 77%
09:00 +9°C° 0 mm 3 mps 759 mmHg 69%
10:00 +11°C° 0 mm 3 mps 759 mmHg 65%
11:00 +12°C° 0 mm 3 mps 759 mmHg 61%
12:00 +14°C° 0 mm 2 mps 758 mmHg 58%
13:00 +14°C° 0 mm 3 mps 758 mmHg 56%
14:00 +14°C° 0 mm 3 mps 758 mmHg 55%
15:00 +14°C° 0 mm 3 mps 757 mmHg 54%
16:00 +14°C° 0 mm 3 mps 757 mmHg 57%
17:00 +13°C° 0 mm 3 mps 757 mmHg 61%
18:00 +13°C° 0 mm 2 mps 757 mmHg 65%
19:00 +12°C° 0 mm 2 mps 756 mmHg 69%
20:00 +10°C° 0 mm 2 mps 756 mmHg 73%
21:00 +9°C° 0 mm 2 mps 756 mmHg 78%
22:00 +8°C° 0 mm 2 mps 755 mmHg 79%
23:00 +8°C° 0 mm 2 mps 755 mmHg 80%

Day after tomorrow, 24 April, Saturday

Time Temperature Precipitation Wind Pressure Humidity
00:00 +8°C° 0 mm 2 mps 754 mmHg 81%
01:00 +7°C° 0 mm 2 mps 754 mmHg 82%
02:00 +7°C° 0 mm 2 mps 753 mmHg 83%
03:00 +8°C° 0 mm 1 mps 753 mmHg 84%
04:00 +7°C° 0 mm 2 mps 753 mmHg 86%
05:00 +7°C° 0 mm 2 mps 752 mmHg 89%
06:00 +7°C° 0 mm 2 mps 752 mmHg 91%
07:00 +7°C° 0.1 mm 2 mps 752 mmHg 90%
08:00 +7°C° 0.1 mm 2 mps 751 mmHg 90%
09:00 +8°C° 0.1 mm 2 mps 751 mmHg 89%
10:00 +8°C° 0.2 mm 2 mps 751 mmHg 88%
11:00 +8°C° 0.2 mm 2 mps 750 mmHg 87%
12:00 +8°C° 0.2 mm 2 mps 750 mmHg 87%
13:00 +9°C° 0.1 mm 1 mps 750 mmHg 87%
14:00 +9°C° 0.1 mm 1 mps 750 mmHg 87%
15:00 +9°C° 0.1 mm 1 mps 749 mmHg 87%
16:00 +9°C° 0 mm 1 mps 749 mmHg 88%
17:00 +8°C° 0 mm 2 mps 749 mmHg 89%
18:00 +7°C° 0 mm 2 mps 749 mmHg 91%
19:00 +7°C° 0 mm 2 mps 748 mmHg 92%
20:00 +7°C° 0 mm 2 mps 748 mmHg 93%
21:00 +6°C° 0 mm 2 mps 748 mmHg 94%
22:00 +5°C° 0 mm 3 mps 747 mmHg 94%
23:00 +5°C° 0 mm 3 mps 747 mmHg 94%

25 April, Sunday

Time Temperature Precipitation Wind Pressure Humidity
00:00 +5°C° 0 mm 3 mps 746 mmHg 93%
01:00 +5°C° 0.1 mm 4 mps 746 mmHg 93%
02:00 +5°C° 0.1 mm 4 mps 745 mmHg 92%
03:00 +6°C° 0.1 mm 5 mps 745 mmHg 92%
04:00 +5°C° 0.6 mm 5 mps 745 mmHg 90%
05:00 +5°C° 0.6 mm 5 mps 745 mmHg 88%
06:00 +3°C° 0.6 mm 6 mps 746 mmHg 86%
07:00 +4°C° 0 mm 6 mps 746 mmHg 78%
08:00 +5°C° 0 mm 6 mps 747 mmHg 69%
09:00 +7°C° 0 mm 6 mps 747 mmHg 61%
10:00 +8°C° 0 mm 6 mps 747 mmHg 53%
11:00 +9°C° 0 mm 7 mps 748 mmHg 46%
12:00 +10°C° 0 mm 7 mps 748 mmHg 39%
13:00 +10°C° 0 mm 6 mps 748 mmHg 38%
14:00 +11°C° 0 mm 6 mps 749 mmHg 37%
15:00 +11°C° 0 mm 6 mps 749 mmHg 37%
16:00 +9°C° 0.2 mm 5 mps 749 mmHg 46%
17:00 +8°C° 0.2 mm 4 mps 749 mmHg 56%
18:00 +8°C° 0.2 mm 3 mps 750 mmHg 65%
19:00 +6°C° 0.1 mm 4 mps 750 mmHg 68%
20:00 +6°C° 0.1 mm 4 mps 750 mmHg 70%
21:00 +6°C° 0.1 mm 4 mps 751 mmHg 72%
22:00 +5°C° 0.1 mm 4 mps 751 mmHg 74%
23:00 +5°C° 0.1 mm 3 mps 751 mmHg 75%

26 April, Monday

Time Temperature Precipitation Wind Pressure Humidity
00:00 +4°C° 0.1 mm 3 mps 751 mmHg 77%
01:00 +3°C° 0 mm 3 mps 751 mmHg 78%
02:00 +3°C° 0 mm 3 mps 751 mmHg 79%
03:00 +2°C° 0 mm 3 mps 751 mmHg 81%
04:00 +2°C° 0 mm 3 mps 751 mmHg 79%
05:00 +3°C° 0 mm 3 mps 751 mmHg 77%
06:00 +3°C° 0 mm 3 mps 752 mmHg 75%
07:00 +4°C° 0 mm 4 mps 752 mmHg 66%
08:00 +6°C° 0 mm 5 mps 752 mmHg 57%
09:00 +7°C° 0 mm 5 mps 752 mmHg 48%
10:00 +8°C° 0 mm 5 mps 751 mmHg 44%
11:00 +9°C° 0 mm 5 mps 751 mmHg 41%
12:00 +11°C° 0 mm 4 mps 751 mmHg 37%
13:00 +11°C° 0 mm 4 mps 751 mmHg 37%
14:00 +11°C° 0 mm 4 mps 750 mmHg 38%
15:00 +12°C° 0 mm 4 mps 750 mmHg 38%
16:00 +11°C° 0 mm 3 mps 749 mmHg 42%
17:00 +10°C° 0 mm 3 mps 749 mmHg 46%
18:00 +10°C° 0 mm 3 mps 749 mmHg 50%
19:00 +9°C° 0 mm 3 mps 748 mmHg 56%
20:00 +7°C° 0 mm 3 mps 748 mmHg 62%
21:00 +5°C° 0 mm 3 mps 748 mmHg 68%
22:00 +5°C° 0.1 mm 3 mps 748 mmHg 75%
23:00 +4°C° 0.1 mm 3 mps 748 mmHg 83%

27 April, Tuesday

Time Temperature Precipitation Wind Pressure Humidity
00:00 +4°C° 0.1 mm 3 mps 748 mmHg 90%
01:00 +3°C° 0.1 mm 3 mps 748 mmHg 91%
02:00 +3°C° 0.1 mm 3 mps 748 mmHg 91%
03:00 +2°C° 0.1 mm 3 mps 748 mmHg 92%
04:00 +2°C° 0 mm 3 mps 749 mmHg 88%
05:00 +2°C° 0 mm 3 mps 749 mmHg 85%
06:00 +3°C° 0 mm 3 mps 749 mmHg 81%
07:00 +4°C° 0 mm 4 mps 749 mmHg 71%
08:00 +6°C° 0 mm 4 mps 750 mmHg 61%
09:00 +7°C° 0 mm 5 mps 750 mmHg 51%
10:00 +7°C° 0.2 mm 5 mps 750 mmHg 50%
11:00 +8°C° 0.2 mm 6 mps 749 mmHg 50%
12:00 +8°C° 0.2 mm 6 mps 749 mmHg 49%
13:00 +8°C° 0.2 mm 6 mps 749 mmHg 46%
14:00 +9°C° 0.2 mm 6 mps 749 mmHg 43%
15:00 +9°C° 0.2 mm 6 mps 749 mmHg 40%
16:00 +8°C° 0.2 mm 5 mps 749 mmHg 46%
17:00 +7°C° 0.2 mm 5 mps 749 mmHg 51%
18:00 +6°C° 0.2 mm 5 mps 750 mmHg 57%
19:00 +5°C° 0.1 mm 4 mps 750 mmHg 62%
20:00 +4°C° 0.1 mm 3 mps 750 mmHg 66%
21:00 +3°C° 0.1 mm 3 mps 751 mmHg 71%
22:00 +3°C° 0 mm 3 mps 751 mmHg 73%
23:00 +2°C° 0 mm 3 mps 751 mmHg 75%
Show more